Wind_Speed
33 23 24 23 23 22 21 19 17 16 15 17 19 20 19 18 17 15 13 11 9 9 7 7 5 3 5 5 6 7 13 9 14 7 9 17 15 17 18 17 15 11 24 23 22 15 11
39 29 22 24 24 24 24 20 18 16 16 18 20 21 20 19 18 16 14 11 9 9 7 6 5 1 2 4 5 4 10 11 9 12 12 9 14 20 20 16 8 16 16 16 13 10 8
48 33 27 25 24 26 27 23 17 16 15 20 22 22 21 20 19 17 14 11 8 8 7 5 5 5 4 5 3 3 7 11 7 10 8 11 9 11 16 18 18 17 17 19 13 4 6
50 35 26 29 28 29 29 26 16 10 20 23 24 24 22 20 19 17 15 11 9 8 7 8 8 9 10 9 3 2 2 7 11 8 8 9 11 12 10 20 20 14 8 9 5 7 3
47 44 31 29 30 30 31 30 25 19 26 26 26 24 22 21 19 17 15 13 11 9 10 11 12 15 9 7 5 4 5 8 14 12 13 16 25 23 20 19 15 8 9 6 12 9 9
49 45 35 31 30 30 30 31 28 24 28 28 28 25 23 21 19 18 16 15 13 12 13 12 13 11 9 10 10 8 8 17 25 27 26 22 19 16 9 2 1 15 18 11 12 8 5
42 58 42 31 30 31 31 30 30 30 26 29 29 26 24 22 20 18 16 17 16 14 16 13 12 11 13 12 11 13 10 18 22 17 19 15 16 14 14 14 11 12 8 6 12 14 3
40 50 38 38 29 31 30 31 32 27 24 31 30 27 25 23 21 20 21 21 18 16 14 9 9 16 16 13 13 13 14 17 16 19 11 19 11 16 15 14 12 5 4 8 11 13 7
35 42 49 46 31 29 29 32 35 30 32 32 31 28 26 24 23 24 23 20 18 18 14 16 15 15 15 15 14 15 16 17 16 13 19 12 17 18 14 18 17 15 12 9 6 12 11
41 44 43 54 42 33 32 31 32 30 32 32 31 29 27 25 25 24 21 16 16 18 9 12 13 12 16 18 13 17 13 15 13 14 13 13 15 11 12 12 13 7 4 6 7 4 3
45 48 47 56 52 36 30 32 35 31 30 31 31 30 28 27 27 25 22 17 21 19 5 11 15 15 18 17 15 15 16 15 16 16 6 11 14 10 9 7 4 5 2 1 4 6 3
39 41 44 45 57 47 35 37 33 30 30 32 31 30 29 29 27 26 23 23 23 9 6 13 16 16 18 14 17 17 14 14 11 10 8 13 11 7 9 7 5 6 4 7 7 3 3
39 41 37 40 55 57 47 41 38 32 31 33 31 30 30 30 30 24 28 25 15 7 11 13 20 20 17 14 13 12 13 17 8 8 12 11 9 9 6 6 6 5 4 4 2 1 5
44 46 39 41 55 54 49 48 41 35 34 35 32 32 32 31 28 28 30 30 7 10 15 9 19 21 15 15 11 13 13 12 11 9 11 4 4 6 8 7 4 4 5 5 5 2 3
44 43 36 45 53 57 50 45 38 36 35 35 32 34 33 28 26 32 34 31 7 14 15 21 23 20 16 17 13 13 4 10 14 13 6 9 4 8 6 6 5 6 5 5 3 0 2
52 47 39 52 52 58 52 45 39 34 36 35 34 34 30 30 28 35 37 23 11 10 16 22 19 21 21 21 14 16 16 11 13 15 13 9 5 8 6 6 6 5 8 4 4 3 2
53 56 42 51 44 50 41 41 45 38 39 36 34 35 32 32 32 35 38 23 18 17 19 22 7 18 18 21 14 16 10 10 14 17 16 9 7 7 7 6 5 7 9 6 6 5 4
51 52 50 54 50 55 44 38 39 42 41 38 38 37 36 37 36 38 40 32 20 15 23 20 15 19 15 15 14 15 13 13 12 16 15 12 6 6 11 10 10 9 8 10 6 6 7
48 47 51 53 52 43 63 46 44 44 41 41 41 38 38 41 42 42 41 31 21 23 26 26 18 20 12 17 13 19 18 13 14 17 12 13 7 8 3 9 14 16 14 11 11 9 10
48 46 38 47 50 42 46 56 47 46 43 42 43 36 36 42 43 42 40 33 27 23 23 21 23 22 17 24 17 21 21 14 20 17 12 12 12 8 6 3 4 8 10 13 16 10 11
45 54 39 51 47 43 49 57 51 49 46 45 45 40 42 47 47 40 34 33 30 27 21 21 21 21 25 23 23 18 16 19 19 15 14 13 9 15 12 13 13 13 12 15 20 19 18
43 47 39 49 41 42 44 57 54 50 48 49 46 41 40 20 44 37 36 35 32 28 25 23 16 19 25 25 23 19 16 16 14 17 16 15 9 11 9 9 11 16 16 19 20 20 22
48 44 44 51 51 43 58 55 54 51 50 50 44 41 36 37 37 39 39 32 28 27 25 19 15 19 21 20 19 13 8 12 12 10 16 14 12 8 6 10 10 14 12 15 21 21 20
56 39 47 58 46 54 58 57 53 50 49 47 44 41 34 31 25 35 35 32 21 19 18 20 19 22 23 20 18 15 14 12 9 9 13 12 11 9 5 6 1 5 3 5 5 7 13
49 49 52 47 46 60 58 54 51 50 50 48 45 40 33 28 23 26 31 31 24 24 21 22 24 26 27 22 15 13 14 11 11 8 10 12 10 6 4 7 9 7 12 14 10 6 12
47 55 51 45 51 63 58 53 51 50 49 45 41 36 33 24 24 28 29 31 30 32 26 27 27 25 24 24 18 12 9 10 11 11 13 13 12 9 8 4 5 0 9 12 10 10 9
50 48 45 44 47 66 58 53 51 51 49 42 38 36 29 25 27 29 30 33 32 33 30 31 32 30 29 25 22 12 8 9 12 13 19 19 15 14 11 6 8 11 11 12 9 7 15
50 48 47 46 55 62 54 52 51 50 45 42 38 32 28 25 26 30 30 35 32 32 30 29 30 31 25 21 18 14 10 12 10 9 8 17 14 12 17 8 10 8 12 12 13 17 22
47 49 43 46 59 60 54 50 50 46 45 42 36 32 28 25 28 31 30 31 31 30 28 24 28 19 22 18 17 14 12 14 14 7 12 10 12 5 9 1 4 4 13 16 21 26 31
Wind_Direction
223 220 221 221 219 217 216 206 203 194 200 189 181 175 174 176 167 162 155 146 144 139 133 121 108 68 41 40 92 107 110 117 116 135 120 116 103 117 150 137 131 149 149 156 157 162 154
227 216 219 223 219 213 213 200 196 193 201 193 184 179 176 179 173 166 161 157 161 158 155 151 129 80 53 47 103 122 116 122 137 129 115 117 102 120 130 144 156 141 135 129 133 133 119
217 223 220 223 221 214 210 201 186 192 217 200 188 183 179 182 179 169 164 162 173 176 169 162 134 109 99 83 104 139 141 134 145 132 127 114 105 122 125 121 120 122 120 110 95 61 138
215 216 226 225 223 218 213 201 202 194 228 207 193 186 183 186 184 174 169 165 178 186 181 167 139 118 109 114 84 31 2 129 128 132 146 130 112 116 117 118 115 107 64 110 134 163 62
225 209 220 227 224 222 220 207 192 216 227 208 197 188 187 190 188 181 176 168 171 189 179 160 145 127 120 107 95 77 104 119 116 112 102 98 102 85 96 104 117 144 132 148 89 104 123
214 205 211 226 224 220 218 207 187 197 217 207 199 189 191 194 193 188 180 170 174 188 175 162 158 124 128 126 118 116 121 116 105 99 104 95 83 82 104 56 290 166 123 132 124 116 187
214 205 211 215 219 216 216 213 196 190 212 208 199 191 193 195 195 189 183 177 173 177 183 173 161 132 137 127 130 134 135 136 124 124 129 123 153 127 117 98 107 155 164 159 139 136 157
218 218 209 207 215 215 216 211 201 194 210 208 198 193 196 195 194 188 190 189 179 175 181 163 147 142 141 138 138 145 144 140 139 147 144 138 151 126 119 125 128 129 144 116 135 158 148
234 204 213 208 210 212 215 212 214 199 211 205 197 194 196 196 194 195 199 199 184 171 176 164 157 153 147 143 147 149 154 152 149 136 148 157 134 130 151 152 149 139 139 144 148 172 151
216 217 229 218 211 209 210 208 205 192 207 202 196 194 196 195 196 202 201 191 184 171 170 171 161 154 149 145 145 151 164 159 148 143 141 127 137 147 149 150 155 180 186 166 147 132 237
213 220 227 216 211 204 206 204 203 197 206 201 196 195 196 196 199 196 190 189 179 166 133 186 183 171 165 160 160 165 165 159 150 154 164 154 152 158 147 160 161 143 169 244 192 170 318
214 223 223 218 214 209 199 201 198 193 205 204 196 195 197 196 196 194 183 181 176 180 180 179 181 184 178 176 175 177 170 168 157 162 160 154 156 151 151 142 134 143 120 74 100 118 228
211 213 212 212 213 210 202 199 200 191 205 205 194 196 198 199 195 185 182 183 175 212 168 191 181 175 179 174 177 179 161 154 146 139 149 145 147 151 163 138 127 135 136 115 42 355 212
215 209 206 211 214 208 201 197 202 187 198 202 192 197 199 200 190 181 185 179 190 197 170 175 174 164 172 166 166 169 183 178 158 145 155 164 163 175 176 185 166 153 138 141 169 159 347
203 209 209 211 220 223 193 190 184 192 196 197 192 198 201 194 188 186 187 184 202 181 166 167 155 156 167 184 176 188 175 208 182 178 158 190 174 183 176 187 187 165 174 174 152 172 281
211 214 210 215 219 212 215 187 183 191 198 194 195 199 195 191 187 190 190 186 174 139 175 181 156 176 179 190 183 176 193 229 196 195 196 193 172 183 190 189 198 209 179 165 169 98 271
207 213 219 219 213 201 204 192 182 192 196 193 194 196 190 188 188 195 196 187 177 162 184 180 168 168 201 194 185 179 217 230 192 195 204 204 202 194 186 192 219 210 197 198 178 173 176
215 214 219 213 215 206 203 198 181 196 192 190 196 195 188 187 188 197 200 195 186 176 171 192 181 172 201 190 167 172 229 228 189 195 197 202 186 153 204 214 231 229 217 209 198 193 196
219 211 211 211 217 210 209 207 192 196 192 192 197 194 187 191 194 198 202 198 194 180 187 196 186 175 193 186 164 209 223 222 188 197 190 188 188 147 222 239 230 230 231 228 219 228 216
202 208 198 208 211 204 204 187 193 194 191 192 198 189 188 194 201 205 199 198 197 194 204 201 201 172 180 175 194 199 222 215 198 204 194 200 203 203 215 210 180 218 221 226 230 230 240
197 201 208 212 208 203 203 194 192 192 191 193 198 195 194 198 203 204 202 205 202 200 201 197 199 191 186 188 203 212 213 211 210 205 208 207 223 222 231 247 258 263 254 249 246 254 254
206 208 219 204 213 205 200 181 191 190 192 196 197 197 197 202 206 200 198 204 208 204 209 202 202 187 194 213 215 223 222 218 213 209 208 214 221 227 239 255 262 266 266 268 269 263 266
212 208 213 203 207 199 183 189 190 190 193 197 199 201 201 205 200 202 204 202 204 215 216 214 202 171 209 218 220 233 212 217 222 215 219 217 226 215 203 203 242 268 274 258 267 274 278
206 205 205 202 201 189 182 191 188 190 194 199 199 202 202 201 202 206 207 199 197 210 212 204 178 191 196 207 208 200 205 213 228 207 217 229 218 204 219 230 263 191 250 256 268 247 252
210 210 197 197 195 184 187 190 189 190 195 198 201 203 203 202 208 203 202 192 178 200 201 184 182 202 210 210 204 196 192 204 196 229 221 241 226 203 225 212 267 256 232 231 230 218 237
204 198 196 196 190 188 185 189 188 193 197 198 202 203 207 197 188 186 192 186 190 203 194 189 192 200 209 219 205 200 194 199 189 185 198 240 255 222 201 210 224 234 265 249 251 244 232
195 195 199 193 189 183 182 190 188 193 196 197 199 202 203 200 193 182 188 186 198 210 205 198 198 200 208 215 205 194 197 206 186 187 192 197 225 230 219 231 257 235 253 262 259 239 235
191 192 193 190 189 175 187 187 187 193 193 196 199 199 200 196 191 184 186 194 204 216 216 209 207 214 217 211 208 202 195 214 212 213 213 211 208 215 213 217 251 229 252 256 226 236 248
188 192 190 185 188 176 182 184 188 192 194 195 198 199 195 192 191 191 196 202 206 218 221 222 216 219 216 207 209 204 191 201 211 210 228 229 231 241 217 257 211 261 261 250 251 258 266
Height
3119 3123 3126 3129 3133 3137 3140 3142 3144 3146 3149 3152 3155 3157 3159 3164 3165 3167 3169 3170 3172 3173 3173 3173 3173 3174 3174 3175 3175 3174 3177 3178 3176 3177 3176 3180 3181 3183 3185 3188 3193 3196 3200 3203 3204 3206 3208
3114 3118 3122 3125 3129 3132 3137 3139 3142 3144 3148 3150 3154 3156 3158 3163 3165 3166 3168 3170 3172 3173 3173 3173 3173 3174 3175 3176 3176 3177 3178 3178 3178 3179 3179 3181 3184 3186 3188 3191 3195 3200 3202 3204 3207 3208 3210
3110 3113 3117 3121 3124 3128 3133 3137 3138 3142 3147 3150 3152 3155 3157 3162 3164 3165 3167 3168 3172 3173 3173 3173 3173 3174 3174 3176 3177 3179 3178 3178 3180 3180 3182 3184 3186 3188 3189 3192 3197 3200 3201 3205 3208 3208 3211
3099 3107 3111 3116 3121 3124 3128 3131 3135 3137 3146 3149 3150 3154 3156 3160 3163 3164 3165 3167 3170 3172 3173 3173 3174 3174 3174 3176 3178 3180 3180 3180 3180 3182 3184 3186 3188 3190 3193 3195 3199 3202 3204 3207 3210 3212 3212
3089 3101 3106 3111 3116 3119 3123 3128 3130 3134 3144 3147 3149 3152 3155 3159 3161 3163 3164 3166 3168 3171 3172 3173 3174 3172 3176 3178 3180 3181 3182 3182 3182 3185 3186 3190 3191 3194 3197 3198 3201 3203 3204 3207 3209 3212 3212
3081 3092 3099 3104 3109 3114 3119 3123 3126 3132 3140 3143 3147 3149 3154 3157 3159 3160 3162 3164 3167 3170 3171 3172 3173 3175 3177 3179 3180 3182 3184 3185 3185 3187 3190 3193 3194 3195 3199 3202 3203 3202 3205 3206 3209 3212 3212
3075 3085 3091 3098 3103 3109 3115 3119 3122 3128 3134 3140 3144 3147 3151 3154 3157 3159 3162 3163 3168 3170 3171 3170 3172 3173 3176 3179 3181 3182 3186 3186 3186 3188 3190 3191 3194 3197 3201 3203 3204 3204 3205 3207 3209 3211 3211
3066 3075 3084 3091 3098 3103 3109 3115 3119 3124 3130 3137 3140 3144 3149 3151 3155 3157 3158 3160 3163 3168 3172 3171 3173 3173 3176 3180 3182 3183 3186 3188 3189 3190 3193 3193 3196 3199 3202 3204 3205 3205 3205 3208 3210 3212 3213
3060 3071 3079 3086 3093 3098 3103 3110 3115 3118 3127 3132 3136 3140 3145 3149 3152 3154 3156 3160 3163 3166 3171 3172 3172 3174 3177 3180 3182 3183 3185 3186 3189 3192 3193 3194 3197 3198 3199 3202 3205 3207 3207 3209 3211 3212 3213
3054 3063 3070 3079 3087 3094 3099 3105 3111 3116 3122 3127 3132 3137 3141 3145 3151 3152 3156 3161 3163 3165 3170 3175 3174 3176 3178 3179 3184 3182 3184 3188 3189 3192 3194 3195 3196 3198 3200 3202 3203 3205 3207 3208 3210 3213 3213
3047 3055 3060 3067 3079 3088 3093 3100 3106 3112 3118 3123 3128 3133 3138 3143 3145 3150 3157 3159 3161 3165 3168 3174 3174 3175 3176 3180 3184 3184 3184 3186 3188 3190 3194 3194 3195 3196 3199 3201 3203 3205 3206 3208 3209 3211 3213
3039 3047 3054 3062 3073 3081 3087 3095 3101 3107 3114 3121 3124 3129 3134 3138 3143 3149 3155 3157 3161 3167 3163 3167 3169 3173 3175 3178 3181 3183 3184 3187 3190 3191 3192 3194 3196 3197 3199 3200 3201 3202 3203 3205 3206 3209 3210
3032 3040 3048 3055 3063 3072 3080 3088 3097 3102 3110 3118 3121 3126 3131 3136 3140 3149 3151 3155 3162 3161 3162 3164 3165 3169 3173 3177 3181 3186 3186 3185 3188 3193 3193 3194 3196 3197 3199 3199 3200 3201 3201 3204 3208 3209 3209
3024 3033 3041 3048 3056 3062 3070 3081 3092 3096 3104 3113 3116 3122 3127 3133 3139 3145 3150 3154 3156 3156 3156 3160 3162 3168 3172 3176 3181 3184 3185 3185 3188 3188 3192 3194 3197 3198 3198 3199 3199 3200 3201 3201 3208 3210 3208
3015 3025 3033 3041 3048 3056 3063 3076 3083 3092 3100 3107 3112 3119 3124 3132 3138 3142 3147 3149 3150 3153 3155 3158 3164 3167 3170 3174 3177 3182 3187 3186 3184 3188 3191 3193 3196 3196 3198 3200 3202 3201 3201 3202 3202 3205 3205
3008 3018 3026 3034 3040 3051 3060 3068 3079 3087 3096 3102 3110 3117 3123 3129 3135 3140 3144 3146 3151 3151 3154 3157 3159 3163 3164 3170 3175 3178 3185 3184 3186 3186 3188 3190 3194 3195 3197 3199 3200 3200 3201 3202 3203 3208 3210
3000 3009 3018 3026 3035 3046 3055 3063 3072 3083 3091 3098 3107 3113 3119 3125 3131 3137 3139 3146 3148 3151 3155 3158 3160 3160 3163 3165 3172 3176 3181 3183 3184 3185 3186 3189 3192 3196 3196 3197 3197 3199 3198 3200 3202 3203 3204
2991 2999 3011 3020 3029 3040 3051 3058 3069 3077 3086 3095 3102 3108 3114 3120 3127 3131 3135 3143 3147 3150 3153 3155 3158 3161 3163 3166 3169 3174 3177 3180 3181 3183 3185 3187 3189 3191 3193 3195 3196 3196 3195 3197 3198 3200 3201
2983 2993 3005 3015 3023 3033 3044 3056 3064 3074 3082 3090 3096 3103 3109 3114 3118 3122 3131 3140 3146 3147 3150 3153 3155 3159 3161 3166 3169 3170 3172 3178 3180 3180 3183 3185 3187 3189 3192 3194 3193 3193 3194 3194 3195 3196 3195
2974 2989 2997 3007 3017 3028 3039 3050 3061 3070 3077 3085 3093 3100 3105 3110 3114 3120 3129 3135 3142 3144 3148 3152 3155 3158 3161 3164 3163 3163 3171 3176 3176 3178 3181 3182 3183 3185 3186 3187 3188 3190 3191 3192 3192 3193 3192
2969 2983 2991 3000 3012 3024 3033 3044 3056 3063 3071 3080 3086 3093 3098 3101 3107 3117 3127 3132 3137 3142 3145 3149 3152 3156 3158 3161 3161 3162 3167 3172 3173 3176 3178 3181 3182 3182 3183 3185 3186 3187 3188 3188 3187 3189 3188
2964 2976 2986 2996 3007 3017 3027 3038 3048 3059 3066 3074 3081 3089 3096 3100 3108 3117 3122 3128 3133 3139 3143 3146 3150 3154 3156 3159 3160 3159 3165 3169 3171 3173 3175 3177 3178 3179 3181 3182 3183 3182 3182 3182 3183 3183 3182
2961 2970 2982 2993 3003 3013 3023 3034 3044 3054 3063 3067 3080 3087 3095 3101 3105 3113 3116 3123 3130 3136 3142 3146 3150 3153 3154 3157 3159 3160 3164 3167 3167 3171 3173 3175 3175 3177 3179 3179 3180 3180 3177 3177 3176 3176 3178
2956 2967 2978 2988 2999 3009 3021 3031 3042 3051 3061 3069 3077 3085 3092 3097 3104 3109 3116 3123 3128 3133 3138 3143 3148 3148 3152 3154 3157 3158 3161 3164 3165 3167 3169 3171 3173 3175 3176 3178 3180 3175 3175 3175 3174 3174 3174
2952 2963 2974 2985 2995 3006 3018 3030 3040 3050 3057 3065 3074 3084 3091 3097 3104 3109 3114 3121 3126 3129 3134 3139 3142 3146 3151 3155 3157 3158 3162 3164 3165 3165 3166 3168 3170 3172 3174 3173 3172 3172 3172 3171 3170 3173 3170
2947 2959 2971 2981 2992 3002 3016 3028 3038 3047 3055 3064 3074 3083 3090 3096 3100 3105 3113 3118 3119 3123 3132 3136 3140 3143 3149 3152 3153 3154 3157 3159 3161 3163 3166 3166 3167 3170 3170 3171 3170 3169 3169 3169 3169 3168 3166
2946 2957 2968 2977 2988 2999 3015 3026 3035 3043 3053 3064 3072 3080 3088 3094 3099 3103 3108 3112 3115 3120 3127 3130 3133 3138 3144 3147 3149 3152 3154 3155 3156 3156 3160 3163 3164 3165 3167 3167 3165 3165 3164 3165 3167 3168 3159
2944 2955 2965 2976 2986 2999 3013 3024 3033 3042 3052 3062 3070 3078 3086 3091 3096 3100 3103 3106 3113 3117 3121 3126 3133 3135 3139 3143 3146 3147 3148 3150 3151 3153 3154 3156 3159 3160 3164 3165 3163 3160 3161 3162 3160 3156 3154
2943 2954 2963 2973 2984 2998 3011 3022 3031 3041 3051 3060 3069 3076 3083 3090 3094 3098 3102 3107 3111 3116 3121 3124 3128 3131 3135 3138 3140 3141 3143 3145 3147 3149 3151 3153 3154 3156 3159 3158 3158 3159 3156 3155 3153 3152 3149